Location: ????????
(55.6189°N, 38.3031°E)
Time: 04:32:40
(UTC+00:00)

SL-16 R/B - Pass Details

Date: 27 February 2020
Orbit: 843 x 847 km, 71.0° (Epoch: 04 April)

Event Time Altitude Azimuth Distance (km) Brightness Sun altitude
Exits shadow 22:48:53 16° 63° (ENE) 2,083 4.6 -40.7°
Drops below altitude 10° 22:50:20 10° 52° (NE) 2,476 5.2 -40.6°
Sets 22:53:12 0° 39° (NE) 3,415 6.2 -40.5°
